Powrót do katalogu

STARLINK-5993

AktywnyŁącznośćVLEO
NORAD 56449·PAYLOAD·🇺🇸 United States

Wystrzelony May 10, 2023 z Vandenberg Space Force Base

Loading…

Następne Przeloty (najbliższe 24 godziny)

TLE

ŚwieżeSource: CelesTrak SupGP

Epoka: Sep 14, 2026, 13:37 UTC

1 56449C 23064B   26257.56784722 -.00031272  00000+0 -26211-2 0  2573
2 56449  70.0027  28.4239 0003268 265.5492  83.1829 14.98340380    18

Śledź STARLINK-5993 w czasie rzeczywistym z AllMySat

Download on the App Store